EW8868 Weather Reports


Display with metric or nautical units.
time (UTC)temp
F
wind
direction
speed
MPH
gust
MPH
rain 1hr
in
rain 24hr
in
rain mn
in
humidity
%
barometer
mb
20260504220053 74 171 0.0 0.0 0.00 0.00 0.07 49 1013.0
20260504214545 75 171 0.0 0.0 0.00 0.00 0.07 48 1013.2
20260504213039 75 171 0.0 0.0 0.00 0.00 0.07 46 1013.1
20260504211534 75 216 0.0 0.0 0.00 0.00 0.07 47 1013.2
20260504210029 74 171 0.0 0.0 0.00 0.00 0.07 50 1013.3
20260504204523 74 173 0.0 0.0 0.00 0.00 0.07 47 1013.3
20260504203020 75 205 1.0 0.0 0.00 0.00 0.07 46 1013.4
20260504201516 75 167 0.0 0.0 0.00 0.00 0.06 46 1013.6
20260504200016 75 167 0.0 0.0 0.00 0.00 0.06 47 1013.9
20260504194509 74 167 0.0 0.0 0.00 0.00 0.06 50 1014.1
20260504193002 74 167 0.0 0.0 0.00 0.00 0.06 48 1014.2
20260504191614 74 165 0.0 0.0 0.00 0.00 0.06 49 1014.4
20260504190055 74 165 0.0 0.0 0.00 0.00 0.05 49 1014.6
20260504184550 73 165 0.0 0.0 0.00 0.00 0.05 48 1014.9
20260504183045 73 300 0.0 0.0 0.00 0.00 0.05 52 1015.2
20260504181541 73 170 0.0 0.0 0.00 0.00 0.05 50 1015.3
20260504180037 74 170 0.0 0.0 0.00 0.00 0.05 53 1015.5
20260504174532 73 170 0.0 0.0 0.00 0.00 0.04 51 1015.5
20260504173027 73 190 0.0 0.0 0.00 0.00 0.04 55 1015.8
20260504171523 72 190 0.0 0.0 0.00 0.00 0.04 53 1016.2
20260504120119 43 293 0.0 0.0 0.00 0.00 0.02 100 1017.6
20260504081548 43 293 0.0 0.0 0.00 0.00 0.01 100 1017.0
20260504044547 46 293 0.0 0.0 0.00 0.00 0.07 100 1018.1
20260504043102 47 293 0.0 0.0 0.00 0.00 0.07 100 1018.3
20260504041537 47 293 0.0 0.0 0.00 0.00 0.07 100 1018.3
20260504040033 48 293 0.0 0.0 0.00 0.00 0.07 100 1018.4
20260504034528 49 293 0.0 0.0 0.00 0.00 0.07 100 1018.6
20260504033023 49 293 0.0 0.0 0.00 0.00 0.07 100 1018.6
20260504031520 50 293 0.0 0.0 0.00 0.00 0.07 100 1018.6
20260504030017 50 293 0.0 0.0 0.00 0.00 0.07 1 1018.4
20260504024511 51 293 0.0 0.0 0.00 0.00 0.07 10 1018.4
20260504023008 52 293 0.0 0.0 0.00 0.00 0.07 23 1018.2
20260504021506 53 293 0.0 0.0 0.00 0.00 0.07 30 1018.1
20260504020106 54 293 0.0 0.0 0.00 0.00 0.06 40 1017.9
20260504014604 55 293 0.0 0.0 0.00 0.00 0.06 48 1017.8
20260504013053 56 293 0.0 0.0 0.00 0.00 0.06 54 1017.6
20260504011544 57 293 0.0 0.0 0.00 0.00 0.06 59 1017.6
20260504010051 58 293 0.0 0.0 0.00 0.00 0.06 61 1017.5
20260504004543 60 293 0.0 0.0 0.00 0.00 0.06 62 1017.3
20260504003032 61 293 0.0 0.0 0.00 0.00 0.06 61 1017.2
20260504001534 63 293 0.0 0.0 0.00 0.00 0.06 62 1017.2
20260504000023 65 293 0.0 0.0 0.00 0.00 0.06 58 1017.2
20260503234520 65 293 0.0 0.0 0.00 0.00 0.06 53 1017.2
20260503233013 65 293 0.0 0.0 0.00 0.00 0.06 48 1017.1
20260503231510 66 293 0.0 0.0 0.00 0.00 0.06 46 1017.1
20260503230006 66 293 0.0 0.0 0.00 0.00 0.06 45 1017.2
20260503224501 66 311 0.0 0.0 0.00 0.00 0.06 45 1017.3
20260503223111 67 269 0.0 0.0 0.00 0.00 0.05 43 1017.4
20260503221554 67 267 0.0 0.0 0.00 0.00 0.05 45 1017.5